Weather in Mungyeong

South Korea     36°35′49″N   128°12′02″E
temp.,
°C
wind,
m/s
gust,
m/s
humid.,
%
clouds,
%
prec.,
mm/h
press.,
hPa
HPBL,
m
15 april, thu
thu1500:00+4w11603 0.0 102011
03:00+3wsw11658 0.0 102010
06:00+3w1170100 0.0 102010
09:00+8se0154100 0.0 1021369
12:00+14ne1138100 0.0 1020861
15:00+14sse2232100 0.0 1018928
18:00+14s11430 0.0 101713
21:00+10ese1149100 0.0 101810
16 april, fri
fri1600:00+8wnw0058100 0.0 101810
03:00+6ssw1165100 0.0 101810
06:00+6sw1169100 0.0 101810
09:00+9sw126288 0.5 1018384
12:00+15w3753100 0.0 10171232
15:00+12w41072100 0.1 1017660
18:00+12wnw3872100 0.0 1016439
21:00+10w2281100 0.0 101731
17 april, sat
sat1700:00+9wsw1186100 0.0 101710
03:00+9nw1189100 0.0 101510
06:00+8w119222 0.0 101310
09:00+14wsw376813 0.0 10131070
12:00+14w6124863 0.4 10122013
15:00+15wnw9122733 0.4 10103012
18:00+11wnw712370 0.0 10112016
21:00+7w713561 0.0 10131084
18 april, sun
sun1800:00+7wnw8147194 0.0 10131371
03:00+7wnw9167177 0.0 10121204
06:00+6wnw713716 0.0 1012940
09:00+10wnw915565 0.0 10131426
12:00+14wnw912372 0.0 10131857
15:00+16wnw69320 0.0 10121911
18:00+14w69440 0.0 1013643
21:00+8wsw34560 0.0 101660
19 april, mon
mon1900:00+6wsw22690 0.0 101737
03:00+5wsw22730 0.0 101723
06:00+4wsw22750 0.0 101718
09:00+11wsw24460 0.0 1018550
12:00+19wnw68260 0.0 10161431
15:00+21wnw58230 0.0 10141862
18:00+18wnw47350 0.0 1014198
21:00+11wsw22510 0.0 101720